Neptune Beach, FL

00:37 EDT le 03 août 2015 (GMT -0400)
Atlantic Beach, Florida | | Change Station
CLOSE
Current Station
Stations météorologiques personnelles
Location: Atlantic Beach, FL
Altitude: 12 ft
Stations météo à proximité

Alt. 12 ft 30.33 °N, 81.40 °W | Updated 7 minutes ago

Partiellement nuageux
Partiellement nuageux
77.2 ° F
Paraît 79 ° F
N
2.2
Vent Variable Vent de Ouest

Aujourd'hui
Haut(e) -- | Bas -- ° F
--% Risque de précip.
Hier
Haut(e) -- | Bas -- ° F
Precip. -- pouce
6:45 AM 8:18 PM
Lune gibbeuse décroissante, 89% visible
Pression 29.90 pouce
Visibilité 10.0 Miles terrestres
Nuages Ciel dégagé
indice de chaleur 79 ° F
Point de rosée 71 ° F
Humidité 82%
Précipitations 0.00 pouce
Profondeur de la couche neigeuse Non disponible.
UV 0 sur 12
Pollen .60 sur 12
Qualité de l'air Non disponible.
Flu Activity Non disponible.
METAR KNRB 030352Z AUTO 16009G17KT 10SM CLR 26/22 A2990 RMK AO2 SLP123 T02560217 $

More Conditions Fewer Conditions

Pression 29.90 pouce
Visibilité 10.0 Miles terrestres
Nuages Ciel dégagé
indice de chaleur 79 ° F
Point de rosée 71 ° F
Humidité 82%
Précipitations 0.00 pouce
Profondeur de la couche neigeuse Non disponible.
UV 0 sur 12
Pollen .60 sur 12
Qualité de l'air Non disponible.
Flu Activity Non disponible.
METAR KNRB 030352Z AUTO 16009G17KT 10SM CLR 26/22 A2990 RMK AO2 SLP123 T02560217 $

More Conditions Fewer Conditions

10-Day Weather Forecast

×

Almanac

Astronomie

Aug. 03, 2015 Lever Coucher
Temps réel
Crépuscule civil
Crépuscule nautique
Crépuscule astronomique
Lune
Durée de lumière visible
Longueur du jour
Tomorrow will be .
, % of the Moon is Illuminated

Extrêmes aujourd'hui

State Highs State Lows

Community

WunderPhotos

Upload Photos

1,843,578 Photos téléchargées !

WunderBlogs® & News

Nearby

Qualité de l'air

  Qualité de l'air Indice de la qualité de l'air Polluant
Not available.

Épaisseur de neige

Station Depth Altitude

Activité sismique

Ville Distance Mag. Time & Date
Minimum magnitude displayed is 2.5.

Températures des eaux côtières

Lieu Température

Stations

Stations météo à proximité

Emplacement de la station Température Refroidissement éolien Point de rosée Humidité Vent Precip. Alt. Mise à jour Type